Regional Weather Roundup
Issued by NWS Mobile, AL

Home | Current Version | Previous Version | Text Only | Print | Product List | Glossary On
Versions: 1 2 3 4 5 6 7 8 9 10 11 12 13 14 15 16 17 18 19 20 21 22 23 24 25 26 27 28
000
ASUS44 KMOB 030112
RWRMOB
REGIONAL WEATHER ROUNDUP
NATIONAL WEATHER SERVICE MOBILE AL
800 PM CDT MON MAY 02 2016

NOTE: "FAIR" INDICATES FEW OR NO CLOUDS BELOW 12,000 FEET WITH NO
      SIGNIFICANT WEATHER AND/OR OBSTRUCTIONS TO VISIBILITY.

  * THESE STATIONS ARE PART OF THE UNIVERSITY OF SOUTH ALABAMA
    MESONET AND ARE NOT UNDER NWS OR FAA QUALITY CONTROL.

ALZ061>064-030200-
COASTAL ALABAMA

CITY           SKY/WX    TMP DP  RH WIND       PRES   REMARKS
MOBILE REG APT CLOUDY    70  69  97 E8        29.95R
BROOKLEY FIELD RAIN      71  68  90 E14       29.96R
USA CAMPUS*    NOT AVBL
DOG RIVER*     NOT AVBL


CITY           SKY/WX    TMP DP  RH WIND       PRES   REMARKS
MOUNT VERNON*  NOT AVBL
SARALAND*      NOT AVBL
BAY MINETTE*   NOT AVBL
LOXLEY*        NOT AVBL
ROBERTSDALE*   NOT AVBL
FAIRHOPE*      NOT AVBL
ELBERTA*       NOT AVBL
FOLEY*         NOT AVBL
GRAND BAY*     NOT AVBL
DAUPHIN ISLND* NOT AVBL
BON SCOUR NWR* NOT AVBL
GULF SHORES    CLOUDY    75  75 100 CALM      29.94R

$$

ALZ051>060-030200-
INTERIOR SOUTHWEST AND SOUTH CENTRAL ALABAMA

CITY           SKY/WX    TMP DP  RH WIND       PRES   REMARKS
GREENVILLE     LGT RAIN  68  65  90 NW5       29.96S
EVERGREEN      CLOUDY    71  69  93 CALM      29.96S
CASTLEBERRY*   NOT AVBL
ATMORE*        NOT AVBL
DIXIE*         NOT AVBL
ANDALUSIA/OPP  CLOUDY    77  70  79 SW5       29.95R
ANDALUSIA*     NOT AVBL
FLORALA APT    CLOUDY    73  68  84 CALM      29.96S
FLORALA*       NOT AVBL

$$

FLZ001>006-030200-
WESTERN FLORIDA PANHANDLE

CITY           SKY/WX    TMP DP  RH WIND       PRES   REMARKS
PENSACOLA      CLOUDY    77  71  82 SW7       29.94S
NAS PENSACOLA  NOT AVBL
MILTON         TSTM      68  68 100 NW7       29.96R
WHTNG S FIELD  CLOUDY    72  67  84 N6        29.95S


CITY           SKY/WX    TMP DP  RH WIND       PRES   REMARKS
WALNUT HILL*   NOT AVBL
JAY*           NOT AVBL
CRESTVIEW      CLOUDY    75  65  70 W8        29.97R
VALPARAISO     NOT AVBL
DESTIN         MOCLDY    79  75  87 S3        29.94F

$$

MSZ076-079-030200-
INTERIOR SOUTHEAST MISSISSIPPI

CITY           SKY/WX    TMP DP  RH WIND       PRES   REMARKS
LEAKESVILLE*   NOT AVBL
AGRICOLA*      NOT AVBL

$$

MARINE OBSERVATIONS

STATION/POSITION TIME  TEMP    WIND        PRES    WAVE
                       AIR SEA DIR/SP/G            HT/PER
                 (UTC) (F)     (DEG/KT/KT) (MB)    (FT/S)
PASCAGOULA       0000   77                 1012.7F
PETIT BOIS ISLND 0012   79                 1013.3F
GRAND BAY        2300   77     200/ 13     1015.0
KATRINA CUT      0000   76     210/ 10       N/A
CEDAR POINT      0000   77     200/ 10     1012.9S
E DAUPHIN ISLAND 0000   77     180/  7/  8 1012.8S
MIDDLE BAY LIGHT 0000   77     170/ 10     1013.2S
USCG MOBILE BAY  0000   69 77              1014.3R
STATE DOCKS      0000   69 74              1013.9S
MEAHER PARK      0000   67      40/  6     1013.9R
WEEKS BAY        2300   77                   N/A
FORT MORGAN      0000   76                 1012.8S
12 S ORANGE BCH  0050   76 76  150/  4/  4 1012.8R   3/ 7
PENSACOLA BAY    0000   88 73              1014.1S
64 S DAUPHIN ISL 0000   76 77  160/ 10/ 12 1012.4F

$$

SELECTED LOCATIONS ACROSS THE REGION

CITY           SKY/WX    TMP DP  RH WIND       PRES   REMARKS
NEW ORLEANS    CLOUDY    76  70  82 NW3       29.91R
GULFPORT       PTCLDY    75  70  84 CALM      29.90R
PASCAGOULA AP  CLOUDY    75  73  93 CALM      29.92R
PASCAGOULA*    NOT AVBL
HATTIESBURG    PTCLDY    74  69  85 NE3       29.94S
LAUREL         MOCLDY    72  66  83 N5        29.95R
MERIDIAN       CLOUDY    70  68  93 W6        29.94R
JACKSON        CLOUDY    70  65  84 N5        29.95R
MONTGOMERY     CLOUDY    69  65  86 SW3       29.96F
TROY           CLOUDY    72  67  84 NW12      29.97R
KINSTON*       NOT AVBL
GENEVA*        NOT AVBL
ASHFORD*       NOT AVBL
DOTHAN         CLOUDY    78  66  66 SW7       29.99R
PANAMA CITY    MOCLDY    76  72  87 S5        29.95S

$$





USA.gov is the U.S. government's official web portal to all federal, state and local government web resources and services.